Hourly Data Report for May 17, 2021

TORONTO CITY
ONTARIO
Current Station Operator: ECCC - MSC

43°40'00.000" N
79°24'00.000" W
112.50 m
6158355
71508
XTO

Download Data

Hourly Data (May 2021)
Hourly Data Report for May 17, 2021
TIME
LST
Temp Definition
°C
Dew Point Definition
°C
Rel Hum Definition
%
Precip. Amount Definition
mm

Wind Dir Definition
10's deg

Wind Spd Definition
km/h
Visibility Definition
km
Stn Press Definition
kPa
Hmdx Definition


Wind Chill Definition


Weather Definition


00:00 14.6 3.0 46 0.0       100.98     LegendNANA
01:00 13.6 3.4 50 0.0       101.02     LegendNANA
02:00 12.7 3.8 54 0.0       101.00     LegendNANA
03:00 12.2 3.7 56 0.0       101.00     LegendNANA
04:00 11.6 4.4 61 0.0       101.05     LegendNANA
05:00 11.8 4.6 61 0.0       101.07     LegendNANA
06:00 12.0 4.5 60 0.0       101.09     LegendNANA
07:00 14.5 3.8 49 0.0       101.12     LegendNANA
08:00 16.3 3.3 42 0.0       101.14     LegendNANA
09:00 18.1 5.0 42 0.0       101.17     LegendNANA
10:00 19.5 6.3 42 0.0       101.18     LegendNANA
11:00 19.9 5.8 40 0.0       101.19     LegendNANA
12:00 21.1 5.1 35 0.0       101.16     LegendNANA
13:00 22.3 3.9 30 0.0       101.11     LegendNANA
14:00 22.9 2.9 27 0.0       101.08     LegendNANA
15:00 22.7 4.6 31 0.0       101.02     LegendNANA
16:00 22.9 5.9 33 0.0       100.99     LegendNANA
17:00 22.3 5.7 34 0.0       100.97     LegendNANA
18:00 21.6 5.0 34 0.0       100.95     LegendNANA
19:00 20.6 5.0 36 0.0       100.98     LegendNANA
20:00 18.2 5.0 42 0.0       101.01     LegendNANA
21:00 16.9 5.3 46 0.0       101.05     LegendNANA
22:00 16.3 6.1 51 0.0       101.09     LegendNANA
23:00 16.4 6.5 52 0.0       101.12     LegendNANA

Notes on Data Quality.

Legend

  • E = Estimated
  • M = Missing
  • NA = Not Available*
  • [empty] = Indicates an unobserved value
Date modified: